Year,Month,Day,Hour,Minute,Value (Times are PST for temperature in C)
2012,09,15,00,00,17.30
2012,09,15,00,01,17.20
2012,09,15,00,02,17.20
2012,09,15,00,03,17.20
2012,09,15,00,04,17.10
2012,09,15,00,05,17.10
2012,09,15,00,06,17.10
2012,09,15,00,07,17.00
2012,09,15,00,08,16.90
2012,09,15,00,09,16.90
2012,09,15,00,10,16.80
2012,09,15,00,11,16.80
2012,09,15,00,12,16.80
2012,09,15,00,13,16.70
2012,09,15,00,14,16.80
2012,09,15,00,15,16.80
2012,09,15,00,16,16.80
2012,09,15,00,17,16.80
2012,09,15,00,18,16.80
2012,09,15,00,19,16.90
2012,09,15,00,20,16.90
2012,09,15,00,21,16.90
2012,09,15,00,22,16.90
2012,09,15,00,23,16.90
2012,09,15,00,24,16.90
2012,09,15,00,25,16.90
2012,09,15,00,26,16.90
2012,09,15,00,27,16.90
2012,09,15,00,28,16.90
2012,09,15,00,29,16.90
2012,09,15,00,30,16.80
2012,09,15,00,31,16.80
2012,09,15,00,32,16.80
2012,09,15,00,33,16.80
2012,09,15,00,34,16.70
2012,09,15,00,35,16.70
2012,09,15,00,36,16.70
2012,09,15,00,37,16.60
2012,09,15,00,38,16.60
2012,09,15,00,39,16.60
2012,09,15,00,40,16.60
2012,09,15,00,41,16.50
2012,09,15,00,42,16.50
2012,09,15,00,43,16.40
2012,09,15,00,44,16.40
2012,09,15,00,45,16.40
2012,09,15,00,46,16.40
2012,09,15,00,47,16.30
2012,09,15,00,48,16.30
2012,09,15,00,49,16.30
2012,09,15,00,50,16.30
2012,09,15,00,51,16.30
2012,09,15,00,52,16.30
2012,09,15,00,53,16.30
2012,09,15,00,54,16.30
2012,09,15,00,55,16.30
2012,09,15,00,56,16.20
2012,09,15,00,57,16.20
2012,09,15,00,58,16.20
2012,09,15,00,59,16.20
2012,09,15,01,00,16.20
2012,09,15,01,01,16.20
2012,09,15,01,02,16.20
2012,09,15,01,03,16.20
2012,09,15,01,04,16.10
2012,09,15,01,05,16.10
2012,09,15,01,06,16.10
2012,09,15,01,07,16.10
2012,09,15,01,08,16.10
2012,09,15,01,09,16.00
2012,09,15,01,10,16.00
2012,09,15,01,11,15.90
2012,09,15,01,12,15.90
2012,09,15,01,13,15.90
2012,09,15,01,14,15.80
2012,09,15,01,15,15.80
2012,09,15,01,16,15.70
2012,09,15,01,17,15.70
2012,09,15,01,18,15.70
2012,09,15,01,19,15.70
2012,09,15,01,20,15.60
2012,09,15,01,21,15.60
2012,09,15,01,22,15.60
2012,09,15,01,23,15.60
2012,09,15,01,24,15.50
2012,09,15,01,25,15.50
2012,09,15,01,26,15.50
2012,09,15,01,27,15.50
2012,09,15,01,28,15.50
2012,09,15,01,29,15.50
2012,09,15,01,30,15.40
2012,09,15,01,31,15.40
2012,09,15,01,32,15.40
2012,09,15,01,33,15.40
2012,09,15,01,34,15.40
2012,09,15,01,35,15.40
2012,09,15,01,36,15.30
2012,09,15,01,37,15.30
2012,09,15,01,38,15.30
2012,09,15,01,39,15.30
2012,09,15,01,40,15.20
2012,09,15,01,41,15.20
2012,09,15,01,42,15.20
2012,09,15,01,43,15.10
2012,09,15,01,44,15.10
2012,09,15,01,45,15.10
2012,09,15,01,46,15.10
2012,09,15,01,47,15.10
2012,09,15,01,48,15.10
2012,09,15,01,49,15.20
2012,09,15,01,50,15.20
2012,09,15,01,51,15.20
2012,09,15,01,52,15.30
2012,09,15,01,53,15.30
2012,09,15,01,54,15.30
2012,09,15,01,55,15.30
2012,09,15,01,56,15.30
2012,09,15,01,57,15.30
2012,09,15,01,58,15.30
2012,09,15,01,59,15.30
2012,09,15,02,00,15.30
2012,09,15,02,01,15.30
2012,09,15,02,02,15.20
2012,09,15,02,03,15.20
2012,09,15,02,04,15.20
2012,09,15,02,05,15.20
2012,09,15,02,06,15.20
2012,09,15,02,07,15.10
2012,09,15,02,08,15.10
2012,09,15,02,09,15.10
2012,09,15,02,10,15.10
2012,09,15,02,11,15.00
2012,09,15,02,12,15.00
2012,09,15,02,13,15.00
2012,09,15,02,14,15.00
2012,09,15,02,15,15.00
2012,09,15,02,16,15.00
2012,09,15,02,17,15.00
2012,09,15,02,18,15.00
2012,09,15,02,19,15.00
2012,09,15,02,20,15.00
2012,09,15,02,21,15.00
2012,09,15,02,22,15.00
2012,09,15,02,23,15.00
2012,09,15,02,24,15.00
2012,09,15,02,25,15.00
2012,09,15,02,26,15.00
2012,09,15,02,27,15.00
2012,09,15,02,28,15.00
2012,09,15,02,29,15.00
2012,09,15,02,30,15.00
2012,09,15,02,31,15.00
2012,09,15,02,32,15.00
2012,09,15,02,33,15.00
2012,09,15,02,34,15.00
2012,09,15,02,35,15.00
2012,09,15,02,36,15.00
2012,09,15,02,37,15.00
2012,09,15,02,38,15.10
2012,09,15,02,39,15.20
2012,09,15,02,40,15.20
2012,09,15,02,41,15.30
2012,09,15,02,42,15.30
2012,09,15,02,43,15.30
2012,09,15,02,44,15.30
2012,09,15,02,45,15.30
2012,09,15,02,46,15.30
2012,09,15,02,47,15.30
2012,09,15,02,48,15.30
2012,09,15,02,49,15.30
2012,09,15,02,50,15.20
2012,09,15,02,51,15.10
2012,09,15,02,52,15.00
2012,09,15,02,53,15.00
2012,09,15,02,54,15.00
2012,09,15,02,55,15.00
2012,09,15,02,56,15.00
2012,09,15,02,57,15.00
2012,09,15,02,58,15.00
2012,09,15,02,59,15.00
2012,09,15,03,00,15.00
2012,09,15,03,01,15.00
2012,09,15,03,02,15.00
2012,09,15,03,03,15.00
2012,09,15,03,04,15.00
2012,09,15,03,05,15.00
2012,09,15,03,06,15.00
2012,09,15,03,07,15.00
2012,09,15,03,08,15.00
2012,09,15,03,09,15.00
2012,09,15,03,10,15.10
2012,09,15,03,11,15.20
2012,09,15,03,12,15.20
2012,09,15,03,13,15.20
2012,09,15,03,14,15.20
2012,09,15,03,15,15.30
2012,09,15,03,16,15.30
2012,09,15,03,17,15.30
2012,09,15,03,18,15.40
2012,09,15,03,19,15.40
2012,09,15,03,20,15.40
2012,09,15,03,21,15.40
2012,09,15,03,22,15.40
2012,09,15,03,23,15.40
2012,09,15,03,24,15.40
2012,09,15,03,25,15.40
2012,09,15,03,26,15.40
2012,09,15,03,27,15.40
2012,09,15,03,28,15.40
2012,09,15,03,29,15.30
2012,09,15,03,30,15.30
2012,09,15,03,31,15.30
2012,09,15,03,32,15.20
2012,09,15,03,33,15.20
2012,09,15,03,34,15.20
2012,09,15,03,35,15.10
2012,09,15,03,36,15.10
2012,09,15,03,37,15.10
2012,09,15,03,38,15.00
2012,09,15,03,39,15.00
2012,09,15,03,40,15.00
2012,09,15,03,41,15.00
2012,09,15,03,42,15.00
2012,09,15,03,43,15.00
2012,09,15,03,44,15.00
2012,09,15,03,45,15.00
2012,09,15,03,46,15.00
2012,09,15,03,47,15.00
2012,09,15,03,48,15.00
2012,09,15,03,49,15.00
2012,09,15,03,50,15.00
2012,09,15,03,51,14.90
2012,09,15,03,52,14.90
2012,09,15,03,53,14.90
2012,09,15,03,54,14.90
2012,09,15,03,55,14.80
2012,09,15,03,56,14.80
2012,09,15,03,57,14.80
2012,09,15,03,58,14.80
2012,09,15,03,59,14.80
2012,09,15,04,00,14.80
2012,09,15,04,01,14.80
2012,09,15,04,02,14.80
2012,09,15,04,03,14.70
2012,09,15,04,04,14.80
2012,09,15,04,05,14.80
2012,09,15,04,06,14.80
2012,09,15,04,07,14.70
2012,09,15,04,08,14.70
2012,09,15,04,09,14.70
2012,09,15,04,10,14.70
2012,09,15,04,11,14.70
2012,09,15,04,12,14.70
2012,09,15,04,13,14.60
2012,09,15,04,14,14.60
2012,09,15,04,15,14.60
2012,09,15,04,16,14.60
2012,09,15,04,17,14.50
2012,09,15,04,18,14.50
2012,09,15,04,19,14.50
2012,09,15,04,20,14.40
2012,09,15,04,21,14.40
2012,09,15,04,22,14.40
2012,09,15,04,23,14.30
2012,09,15,04,24,14.30
2012,09,15,04,25,14.30
2012,09,15,04,26,14.30
2012,09,15,04,27,14.20
2012,09,15,04,28,14.20
2012,09,15,04,29,14.20
2012,09,15,04,30,14.20
2012,09,15,04,31,14.20
2012,09,15,04,32,14.20
2012,09,15,04,33,14.20
2012,09,15,04,34,14.20
2012,09,15,04,35,14.20
2012,09,15,04,36,14.20
2012,09,15,04,37,14.20
2012,09,15,04,38,14.10
2012,09,15,04,39,14.10
2012,09,15,04,40,14.10
2012,09,15,04,41,14.10
2012,09,15,04,42,14.10
2012,09,15,04,43,14.10
2012,09,15,04,44,14.10
2012,09,15,04,45,14.10
2012,09,15,04,46,14.10
2012,09,15,04,47,14.10
2012,09,15,04,48,14.10
2012,09,15,04,49,14.10
2012,09,15,04,50,14.10
2012,09,15,04,51,14.00
2012,09,15,04,52,14.00
2012,09,15,04,53,14.00
2012,09,15,04,54,14.00
2012,09,15,04,55,13.90
2012,09,15,04,56,13.90
2012,09,15,04,57,13.90
2012,09,15,04,58,13.90
2012,09,15,04,59,13.80
2012,09,15,05,00,13.80
2012,09,15,05,01,13.80
2012,09,15,05,02,13.80
2012,09,15,05,03,13.70
2012,09,15,05,04,13.70
2012,09,15,05,05,13.70
2012,09,15,05,06,13.60
2012,09,15,05,07,13.60
2012,09,15,05,08,13.50
2012,09,15,05,09,13.40
2012,09,15,05,10,13.40
2012,09,15,05,11,13.30
2012,09,15,05,12,13.30
2012,09,15,05,13,13.20
2012,09,15,05,14,13.20
2012,09,15,05,15,13.10
2012,09,15,05,16,13.10
2012,09,15,05,17,13.10
2012,09,15,05,18,13.10
2012,09,15,05,19,13.10
2012,09,15,05,20,13.00
2012,09,15,05,21,13.00
2012,09,15,05,22,13.00
2012,09,15,05,23,12.90
2012,09,15,05,24,12.90
2012,09,15,05,25,12.90
2012,09,15,05,26,12.80
2012,09,15,05,27,12.80
2012,09,15,05,28,12.80
2012,09,15,05,29,12.70
2012,09,15,05,30,12.70
2012,09,15,05,31,12.70
2012,09,15,05,32,12.70
2012,09,15,05,33,12.70
2012,09,15,05,34,12.80
2012,09,15,05,35,12.80
2012,09,15,05,36,12.80
2012,09,15,05,37,12.90
2012,09,15,05,38,12.90
2012,09,15,05,39,12.90
2012,09,15,05,40,12.90
2012,09,15,05,41,12.90
2012,09,15,05,42,13.00
2012,09,15,05,43,13.00
2012,09,15,05,44,13.00
2012,09,15,05,45,13.00
2012,09,15,05,46,13.00
2012,09,15,05,47,13.00
2012,09,15,05,48,12.90
2012,09,15,05,49,12.90
2012,09,15,05,50,12.80
2012,09,15,05,51,12.80
2012,09,15,05,52,12.70
2012,09,15,05,53,12.70
2012,09,15,05,54,12.70
2012,09,15,05,55,12.60
2012,09,15,05,56,12.60
2012,09,15,05,57,12.60
2012,09,15,05,58,12.50
2012,09,15,05,59,12.50
2012,09,15,06,00,12.40
2012,09,15,06,01,12.40
2012,09,15,06,02,12.40
2012,09,15,06,03,12.40
2012,09,15,06,04,12.30
2012,09,15,06,05,12.30
2012,09,15,06,06,12.30
2012,09,15,06,07,12.30
2012,09,15,06,08,12.30
2012,09,15,06,09,12.30
2012,09,15,06,10,12.30
2012,09,15,06,11,12.20
2012,09,15,06,12,12.20
2012,09,15,06,13,12.20
2012,09,15,06,14,12.20
2012,09,15,06,15,12.20
2012,09,15,06,16,12.20
2012,09,15,06,17,12.20
2012,09,15,06,18,12.20
2012,09,15,06,19,12.20
2012,09,15,06,20,12.20
2012,09,15,06,21,12.30
2012,09,15,06,22,12.30
2012,09,15,06,23,12.20
2012,09,15,06,24,12.20
2012,09,15,06,25,12.20
2012,09,15,06,26,12.20
2012,09,15,06,27,12.20
2012,09,15,06,28,12.10
2012,09,15,06,29,12.10
2012,09,15,06,30,12.10
2012,09,15,06,31,12.10
2012,09,15,06,32,12.10
2012,09,15,06,33,12.10
2012,09,15,06,34,12.20
2012,09,15,06,35,12.20
2012,09,15,06,36,12.20
2012,09,15,06,37,12.30
2012,09,15,06,38,12.30
2012,09,15,06,39,12.30
2012,09,15,06,40,12.30
2012,09,15,06,41,12.30
2012,09,15,06,42,12.30
2012,09,15,06,43,12.30
2012,09,15,06,44,12.30
2012,09,15,06,45,12.40
2012,09,15,06,46,12.40
2012,09,15,06,47,12.50
2012,09,15,06,48,12.50
2012,09,15,06,49,12.60
2012,09,15,06,50,12.60
2012,09,15,06,51,12.60
2012,09,15,06,52,12.60
2012,09,15,06,53,12.60
2012,09,15,06,54,12.60
2012,09,15,06,55,12.60
2012,09,15,06,56,12.60
2012,09,15,06,57,12.50
2012,09,15,06,58,12.50
2012,09,15,06,59,12.40
2012,09,15,07,00,12.40
2012,09,15,07,01,12.40
2012,09,15,07,02,12.30
2012,09,15,07,03,12.30
2012,09,15,07,04,12.30
2012,09,15,07,05,12.20
2012,09,15,07,06,12.20
2012,09,15,07,07,12.20
2012,09,15,07,08,12.20
2012,09,15,07,09,12.20
2012,09,15,07,10,12.20
2012,09,15,07,11,12.20
2012,09,15,07,12,12.20
2012,09,15,07,13,12.20
2012,09,15,07,14,12.20
2012,09,15,07,15,12.20
2012,09,15,07,16,12.10
2012,09,15,07,17,12.10
2012,09,15,07,18,12.10
2012,09,15,07,19,12.10
2012,09,15,07,20,12.20
2012,09,15,07,21,12.20
2012,09,15,07,22,12.20
2012,09,15,07,23,12.20
2012,09,15,07,24,12.20
2012,09,15,07,25,12.20
2012,09,15,07,26,12.20
2012,09,15,07,27,12.20
2012,09,15,07,28,12.20
2012,09,15,07,29,12.20
2012,09,15,07,30,12.20
2012,09,15,07,31,12.20
2012,09,15,07,32,12.20
2012,09,15,07,33,12.20
2012,09,15,07,34,12.30
2012,09,15,07,35,12.30
2012,09,15,07,36,12.40
2012,09,15,07,37,12.40
2012,09,15,07,38,12.50
2012,09,15,07,39,12.50
2012,09,15,07,40,12.60
2012,09,15,07,41,12.70
2012,09,15,07,42,12.70
2012,09,15,07,43,12.80
2012,09,15,07,44,12.90
2012,09,15,07,45,12.90
2012,09,15,07,46,13.00
2012,09,15,07,47,13.10
2012,09,15,07,48,13.10
2012,09,15,07,49,13.20
2012,09,15,07,50,13.20
2012,09,15,07,51,13.30
2012,09,15,07,52,13.30
2012,09,15,07,53,13.30
2012,09,15,07,54,13.40
2012,09,15,07,55,13.50
2012,09,15,07,56,13.50
2012,09,15,07,57,13.60
2012,09,15,07,58,13.60
2012,09,15,07,59,13.70
2012,09,15,08,00,13.80
2012,09,15,08,01,13.80
2012,09,15,08,02,13.90
2012,09,15,08,03,13.90
2012,09,15,08,04,14.00
2012,09,15,08,05,14.10
2012,09,15,08,06,14.10
2012,09,15,08,07,14.10
2012,09,15,08,08,14.20
2012,09,15,08,09,14.20
2012,09,15,08,10,14.30
2012,09,15,08,11,14.30
2012,09,15,08,12,14.40
2012,09,15,08,13,14.50
2012,09,15,08,14,14.50
2012,09,15,08,15,14.60
2012,09,15,08,16,14.60
2012,09,15,08,17,14.70
2012,09,15,08,18,14.70
2012,09,15,08,19,14.70
2012,09,15,08,20,14.80
2012,09,15,08,21,14.80
2012,09,15,08,22,14.80
2012,09,15,08,23,14.80
2012,09,15,08,24,14.90
2012,09,15,08,25,14.90
2012,09,15,08,26,15.00
2012,09,15,08,27,15.00
2012,09,15,08,28,15.00
2012,09,15,08,29,15.00
2012,09,15,08,30,15.00
2012,09,15,08,31,15.00
2012,09,15,08,32,15.10
2012,09,15,08,33,15.20
2012,09,15,08,34,15.20
2012,09,15,08,35,15.30
2012,09,15,08,36,15.30
2012,09,15,08,37,15.40
2012,09,15,08,38,15.40
2012,09,15,08,39,15.40
2012,09,15,08,40,15.50
2012,09,15,08,41,15.50
2012,09,15,08,42,15.50
2012,09,15,08,43,15.50
2012,09,15,08,44,15.60
2012,09,15,08,45,15.60
2012,09,15,08,46,15.60
2012,09,15,08,47,15.70
2012,09,15,08,48,15.70
2012,09,15,08,49,15.70
2012,09,15,08,50,15.70
2012,09,15,08,51,15.70
2012,09,15,08,52,15.70
2012,09,15,08,53,15.80
2012,09,15,08,54,15.80
2012,09,15,08,55,15.80
2012,09,15,08,56,15.80
2012,09,15,08,57,15.80
2012,09,15,08,58,15.80
2012,09,15,08,59,15.80
2012,09,15,09,00,15.80
2012,09,15,09,01,15.80
2012,09,15,09,02,15.80
2012,09,15,09,03,15.80
2012,09,15,09,04,15.80
2012,09,15,09,05,15.80
2012,09,15,09,06,15.80
2012,09,15,09,07,15.80
2012,09,15,09,08,15.80
2012,09,15,09,09,15.80
2012,09,15,09,10,15.80
2012,09,15,09,11,15.80
2012,09,15,09,12,15.80
2012,09,15,09,13,15.90
2012,09,15,09,14,15.90
2012,09,15,09,15,15.90
2012,09,15,09,16,15.80
2012,09,15,09,17,15.80
2012,09,15,09,18,15.80
2012,09,15,09,19,15.80
2012,09,15,09,20,15.90
2012,09,15,09,21,15.90
2012,09,15,09,22,16.00
2012,09,15,09,23,16.00
2012,09,15,09,24,16.00
2012,09,15,09,25,15.90
2012,09,15,09,26,15.90
2012,09,15,09,27,15.90
2012,09,15,09,28,15.90
2012,09,15,09,29,16.00
2012,09,15,09,30,16.00
2012,09,15,09,31,15.90
2012,09,15,09,32,15.90
2012,09,15,09,33,15.90
2012,09,15,09,34,15.90
2012,09,15,09,35,15.80
2012,09,15,09,36,15.80
2012,09,15,09,37,15.80
2012,09,15,09,38,15.90
2012,09,15,09,39,15.90
2012,09,15,09,40,16.00
2012,09,15,09,41,16.00
2012,09,15,09,42,16.00
2012,09,15,09,43,16.00
2012,09,15,09,44,16.00
2012,09,15,09,45,16.00
2012,09,15,09,46,16.00
2012,09,15,09,47,16.10
2012,09,15,09,48,16.10
2012,09,15,09,49,16.10
2012,09,15,09,50,16.10
2012,09,15,09,51,16.10
2012,09,15,09,52,16.20
2012,09,15,09,53,16.20
2012,09,15,09,54,16.20
2012,09,15,09,55,16.30
2012,09,15,09,56,16.40
2012,09,15,09,57,16.40
2012,09,15,09,58,16.40
2012,09,15,09,59,16.40
2012,09,15,10,00,16.40
2012,09,15,10,01,16.50
2012,09,15,10,02,16.50
2012,09,15,10,03,16.50
2012,09,15,10,04,16.60
2012,09,15,10,05,16.60
2012,09,15,10,06,16.60
2012,09,15,10,07,16.60
2012,09,15,10,08,16.70
2012,09,15,10,09,16.70
2012,09,15,10,10,16.70
2012,09,15,10,11,16.70
2012,09,15,10,12,16.80
2012,09,15,10,13,16.70
2012,09,15,10,14,16.70
2012,09,15,10,15,16.70
2012,09,15,10,16,16.70
2012,09,15,10,17,16.70
2012,09,15,10,18,16.70
2012,09,15,10,19,16.70
2012,09,15,10,20,16.70
2012,09,15,10,21,16.80
2012,09,15,10,22,16.80
2012,09,15,10,23,16.80
2012,09,15,10,24,16.70
2012,09,15,10,25,16.70
2012,09,15,10,26,16.70
2012,09,15,10,27,16.80
2012,09,15,10,28,16.80
2012,09,15,10,29,16.90
2012,09,15,10,30,16.90
2012,09,15,10,31,16.90
2012,09,15,10,32,16.90
2012,09,15,10,33,17.00
2012,09,15,10,34,17.00
2012,09,15,10,35,17.10
2012,09,15,10,36,17.30
2012,09,15,10,37,17.40
2012,09,15,10,38,17.40
2012,09,15,10,39,17.50
2012,09,15,10,40,17.60
2012,09,15,10,41,17.60
2012,09,15,10,42,17.70
2012,09,15,10,43,17.70
2012,09,15,10,44,17.70
2012,09,15,10,45,17.80
2012,09,15,10,46,17.70
2012,09,15,10,47,17.60
2012,09,15,10,48,17.60
2012,09,15,10,49,17.50
2012,09,15,10,50,17.50
2012,09,15,10,51,17.60
2012,09,15,10,52,17.60
2012,09,15,10,53,17.60
2012,09,15,10,54,17.50
2012,09,15,10,55,17.50
2012,09,15,10,56,17.40
2012,09,15,10,57,17.30
2012,09,15,10,58,17.30
2012,09,15,10,59,17.30
2012,09,15,11,00,17.30
2012,09,15,11,01,17.30
2012,09,15,11,02,17.30
2012,09,15,11,03,17.30
2012,09,15,11,04,17.20
2012,09,15,11,05,17.20
2012,09,15,11,06,17.10
2012,09,15,11,07,17.10
2012,09,15,11,08,17.10
2012,09,15,11,09,17.00
2012,09,15,11,10,16.90
2012,09,15,11,11,16.90
2012,09,15,11,12,16.90
2012,09,15,11,13,16.80
2012,09,15,11,14,16.80
2012,09,15,11,15,16.80
2012,09,15,11,16,16.80
2012,09,15,11,17,16.80
2012,09,15,11,18,16.80
2012,09,15,11,19,16.80
2012,09,15,11,20,16.80
2012,09,15,11,21,16.80
2012,09,15,11,22,16.80
2012,09,15,11,23,16.70
2012,09,15,11,24,16.70
2012,09,15,11,25,16.60
2012,09,15,11,26,16.60
2012,09,15,11,27,16.60
2012,09,15,11,28,16.60
2012,09,15,11,29,16.60
2012,09,15,11,30,16.70
2012,09,15,11,31,16.60
2012,09,15,11,32,16.60
2012,09,15,11,33,16.60
2012,09,15,11,34,16.50
2012,09,15,11,35,16.50
2012,09,15,11,36,16.60
2012,09,15,11,37,16.60
2012,09,15,11,38,16.70
2012,09,15,11,39,16.80
2012,09,15,11,40,16.80
2012,09,15,11,41,16.90
2012,09,15,11,42,16.90
2012,09,15,11,43,16.90
2012,09,15,11,44,17.00
2012,09,15,11,45,17.00
2012,09,15,11,46,17.10
2012,09,15,11,47,17.00
2012,09,15,11,48,17.00
2012,09,15,11,49,17.00
2012,09,15,11,50,16.90
2012,09,15,11,51,16.90
2012,09,15,11,52,16.90
2012,09,15,11,53,16.90
2012,09,15,11,54,16.90
2012,09,15,11,55,17.00
2012,09,15,11,56,17.00
2012,09,15,11,57,17.10
2012,09,15,11,58,17.20
2012,09,15,11,59,17.20
2012,09,15,12,00,17.20
2012,09,15,12,01,17.20
2012,09,15,12,02,17.20
2012,09,15,12,03,17.20
2012,09,15,12,04,17.20
2012,09,15,12,05,17.20
2012,09,15,12,06,17.20
2012,09,15,12,07,17.10
2012,09,15,12,08,17.00
2012,09,15,12,09,17.00
2012,09,15,12,10,16.90
2012,09,15,12,11,16.80
2012,09,15,12,12,16.70
2012,09,15,12,13,16.50
2012,09,15,12,14,16.50
2012,09,15,12,15,16.40
2012,09,15,12,16,16.40
2012,09,15,12,17,16.50
2012,09,15,12,18,16.50
2012,09,15,12,19,16.50
2012,09,15,12,20,16.50
2012,09,15,12,21,16.50
2012,09,15,12,22,16.50
2012,09,15,12,23,16.60
2012,09,15,12,24,16.60
2012,09,15,12,25,16.70
2012,09,15,12,26,16.70
2012,09,15,12,27,16.80
2012,09,15,12,28,16.90
2012,09,15,12,29,17.00
2012,09,15,12,30,17.10
2012,09,15,12,31,17.20
2012,09,15,12,32,17.20
2012,09,15,12,33,17.20
2012,09,15,12,34,17.10
2012,09,15,12,35,17.10
2012,09,15,12,36,17.10
2012,09,15,12,37,17.10
2012,09,15,12,38,17.10
2012,09,15,12,39,17.20
2012,09,15,12,40,17.30
2012,09,15,12,41,17.30
2012,09,15,12,42,17.40
2012,09,15,12,43,17.40
2012,09,15,12,44,17.40
2012,09,15,12,45,17.40
2012,09,15,12,46,17.40
2012,09,15,12,47,17.40
2012,09,15,12,48,17.40
2012,09,15,12,49,17.40
2012,09,15,12,50,17.50
2012,09,15,12,51,17.50
2012,09,15,12,52,17.60
2012,09,15,12,53,17.60
2012,09,15,12,54,17.70
2012,09,15,12,55,17.70
2012,09,15,12,56,17.80
2012,09,15,12,57,17.90
2012,09,15,12,58,17.90
2012,09,15,12,59,17.80
2012,09,15,13,00,17.70
2012,09,15,13,01,17.60
2012,09,15,13,02,17.60
2012,09,15,13,03,17.60
2012,09,15,13,04,17.70
2012,09,15,13,05,17.70
2012,09,15,13,06,17.70
2012,09,15,13,07,17.70
2012,09,15,13,08,17.60
2012,09,15,13,09,17.50
2012,09,15,13,10,17.50
2012,09,15,13,11,17.50
2012,09,15,13,12,17.60
2012,09,15,13,13,17.60
2012,09,15,13,14,17.60
2012,09,15,13,15,17.70
2012,09,15,13,16,17.80
2012,09,15,13,17,17.80
2012,09,15,13,18,17.80
2012,09,15,13,19,17.80
2012,09,15,13,20,17.70
2012,09,15,13,21,17.60
2012,09,15,13,22,17.60
2012,09,15,13,23,17.60
2012,09,15,13,24,17.60
2012,09,15,13,25,17.60
2012,09,15,13,26,17.60
2012,09,15,13,27,17.70
2012,09,15,13,28,17.80
2012,09,15,13,29,17.90
2012,09,15,13,30,18.00
2012,09,15,13,31,18.10
2012,09,15,13,32,18.20
2012,09,15,13,33,18.20
2012,09,15,13,34,18.20
2012,09,15,13,35,18.00
2012,09,15,13,36,17.80
2012,09,15,13,37,17.70
2012,09,15,13,38,17.60
2012,09,15,13,39,17.50
2012,09,15,13,40,17.40
2012,09,15,13,41,17.40
2012,09,15,13,42,17.40
2012,09,15,13,43,17.50
2012,09,15,13,44,17.60
2012,09,15,13,45,17.60
2012,09,15,13,46,17.60
2012,09,15,13,47,17.60
2012,09,15,13,48,17.60
2012,09,15,13,49,17.60
2012,09,15,13,50,17.60
2012,09,15,13,51,17.60
2012,09,15,13,52,17.60
2012,09,15,13,53,17.60
2012,09,15,13,54,17.50
2012,09,15,13,55,17.50
2012,09,15,13,56,17.60
2012,09,15,13,57,17.70
2012,09,15,13,58,17.80
2012,09,15,13,59,17.90
2012,09,15,14,00,18.10
2012,09,15,14,01,18.20
2012,09,15,14,02,18.20
2012,09,15,14,03,18.20
2012,09,15,14,04,18.20
2012,09,15,14,05,18.20
2012,09,15,14,06,18.30
2012,09,15,14,07,18.30
2012,09,15,14,08,18.40
2012,09,15,14,09,18.40
2012,09,15,14,10,18.40
2012,09,15,14,11,18.50
2012,09,15,14,12,18.50
2012,09,15,14,13,18.40
2012,09,15,14,14,18.30
2012,09,15,14,15,18.30
2012,09,15,14,16,18.30
2012,09,15,14,17,18.20
2012,09,15,14,18,18.20
2012,09,15,14,19,18.10
2012,09,15,14,20,18.10
2012,09,15,14,21,18.00
2012,09,15,14,22,18.00
2012,09,15,14,23,17.90
2012,09,15,14,24,17.90
2012,09,15,14,25,18.00
2012,09,15,14,26,18.00
2012,09,15,14,27,18.10
2012,09,15,14,28,18.10
2012,09,15,14,29,18.20
2012,09,15,14,30,18.20
2012,09,15,14,31,18.20
2012,09,15,14,32,18.10
2012,09,15,14,33,18.10
2012,09,15,14,34,18.10
2012,09,15,14,35,18.10
2012,09,15,14,36,18.10
2012,09,15,14,37,18.10
2012,09,15,14,38,18.10
2012,09,15,14,39,18.10
2012,09,15,14,40,18.10
2012,09,15,14,41,18.20
2012,09,15,14,42,18.20
2012,09,15,14,43,18.30
2012,09,15,14,44,18.40
2012,09,15,14,45,18.50
2012,09,15,14,46,18.60
2012,09,15,14,47,18.70
2012,09,15,14,48,18.80
2012,09,15,14,49,18.80
2012,09,15,14,50,18.80
2012,09,15,14,51,18.70
2012,09,15,14,52,18.70
2012,09,15,14,53,18.70
2012,09,15,14,54,18.70
2012,09,15,14,55,18.60
2012,09,15,14,56,18.60
2012,09,15,14,57,18.70
2012,09,15,14,58,18.70
2012,09,15,14,59,18.80
2012,09,15,15,00,18.90
2012,09,15,15,01,18.90
2012,09,15,15,02,18.90
2012,09,15,15,03,18.90
2012,09,15,15,04,18.90
2012,09,15,15,05,18.90
2012,09,15,15,06,19.00
2012,09,15,15,07,19.00
2012,09,15,15,08,19.00
2012,09,15,15,09,18.90
2012,09,15,15,10,18.90
2012,09,15,15,11,18.90
2012,09,15,15,12,18.90
2012,09,15,15,13,18.90
2012,09,15,15,14,18.90
2012,09,15,15,15,18.90
2012,09,15,15,16,18.90
2012,09,15,15,17,19.00
2012,09,15,15,18,19.00
2012,09,15,15,19,19.10
2012,09,15,15,20,19.10
2012,09,15,15,21,19.10
2012,09,15,15,22,19.10
2012,09,15,15,23,19.00
2012,09,15,15,24,19.00
2012,09,15,15,25,19.00
2012,09,15,15,26,19.00
2012,09,15,15,27,19.00
2012,09,15,15,28,19.00
2012,09,15,15,29,18.90
2012,09,15,15,30,18.90
2012,09,15,15,31,19.00
2012,09,15,15,32,18.90
2012,09,15,15,33,19.00
2012,09,15,15,34,19.00
2012,09,15,15,35,19.00
2012,09,15,15,36,19.10
2012,09,15,15,37,19.10
2012,09,15,15,38,19.10
2012,09,15,15,39,19.10
2012,09,15,15,40,19.10
2012,09,15,15,41,19.10
2012,09,15,15,42,19.10
2012,09,15,15,43,19.10
2012,09,15,15,44,19.10
2012,09,15,15,45,19.10
2012,09,15,15,46,19.10
2012,09,15,15,47,19.10
2012,09,15,15,48,19.10
2012,09,15,15,49,19.10
2012,09,15,15,50,19.10
2012,09,15,15,51,19.20
2012,09,15,15,52,19.30
2012,09,15,15,53,19.30
2012,09,15,15,54,19.40
2012,09,15,15,55,19.40
2012,09,15,15,56,19.50
2012,09,15,15,57,19.60
2012,09,15,15,58,19.60
2012,09,15,15,59,19.60
2012,09,15,16,00,19.60
2012,09,15,16,01,19.70
2012,09,15,16,02,19.70
2012,09,15,16,03,19.80
2012,09,15,16,04,19.80
2012,09,15,16,05,19.90
2012,09,15,16,06,19.90
2012,09,15,16,07,20.00
2012,09,15,16,08,20.10
2012,09,15,16,09,20.20
2012,09,15,16,10,20.30
2012,09,15,16,11,20.40
2012,09,15,16,12,20.40
2012,09,15,16,13,20.40
2012,09,15,16,14,20.40
2012,09,15,16,15,20.30
2012,09,15,16,16,20.30
2012,09,15,16,17,20.30
2012,09,15,16,18,20.20
2012,09,15,16,19,20.10
2012,09,15,16,20,20.10
2012,09,15,16,21,20.00
2012,09,15,16,22,20.00
2012,09,15,16,23,20.00
2012,09,15,16,24,20.00
2012,09,15,16,25,20.00
2012,09,15,16,26,20.10
2012,09,15,16,27,20.20
2012,09,15,16,28,20.20
2012,09,15,16,29,20.30
2012,09,15,16,30,20.20
2012,09,15,16,31,20.20
2012,09,15,16,32,20.20
2012,09,15,16,33,20.20
2012,09,15,16,34,20.30
2012,09,15,16,35,20.30
2012,09,15,16,36,20.30
2012,09,15,16,37,20.30
2012,09,15,16,38,20.30
2012,09,15,16,39,20.30
2012,09,15,16,40,20.30
2012,09,15,16,41,20.30
2012,09,15,16,42,20.30
2012,09,15,16,43,20.30
2012,09,15,16,44,20.30
2012,09,15,16,45,20.30
2012,09,15,16,46,20.30
2012,09,15,16,47,20.30
2012,09,15,16,48,20.30
2012,09,15,16,49,20.30
2012,09,15,16,50,20.30
2012,09,15,16,51,20.30
2012,09,15,16,52,20.40
2012,09,15,16,53,20.40
2012,09,15,16,54,20.50
2012,09,15,16,55,20.50
2012,09,15,16,56,20.50
2012,09,15,16,57,20.50
2012,09,15,16,58,20.40
2012,09,15,16,59,20.40
2012,09,15,17,00,20.40
2012,09,15,17,01,20.40
2012,09,15,17,02,20.40
2012,09,15,17,03,20.40
2012,09,15,17,04,20.40
2012,09,15,17,05,20.30
2012,09,15,17,06,20.30
2012,09,15,17,07,20.30
2012,09,15,17,08,20.30
2012,09,15,17,09,20.20
2012,09,15,17,10,20.20
2012,09,15,17,11,20.20
2012,09,15,17,12,20.20
2012,09,15,17,13,20.20
2012,09,15,17,14,20.20
2012,09,15,17,15,20.20
2012,09,15,17,16,20.20
2012,09,15,17,17,20.20
2012,09,15,17,18,20.20
2012,09,15,17,19,20.20